Location: ????
(30.1475°N, 31.1342°E)
Time: 08:04:41
(UTC+00:00)

COSMOS 2251 DEB - Pass Details

Date: 05 June 2024
Orbit: 760 x 785 km, 73.9° (Epoch: 19 June)

Event Time Altitude Azimuth Distance (km) Brightness Sun altitude
Rises 00:23:20 0° 2° (N) 3,247 ? -26.2°
Reaches altitude 10° 00:26:23 10° 19° (NNE) 2,311 ? -25.8°
Maximum altitude 00:30:08 20° 65° (ENE) 1,738 ? -25.3°
Drops below altitude 10° 00:33:50 10° 111° (ESE) 2,293 ? -24.8°
Sets 00:36:49 0° 128° (SE) 3,212 ? -24.4°
